Regional Weather Roundup
Issued by NWS

Home | Current Version | Previous Version | Text Only | Print | Product List | Glossary Off
Versions: 1 2 3 4 5 6 7 8 9 10 11 12 13 14 15 16 17 18 19 20 21 22 23 24 25 26 27 28 29 30 31 32 33 34 35 36 37 38 39 40 41 42 43 44 45 46 47 48 49 50

000
ASUS43 KDTX 041810
RWRMI
MICHIGAN HOURLY REGIONAL WEATHER ROUNDUP
NATIONAL WEATHER SERVICE DETROIT/PONTIAC MI
ISSUED BY NATIONAL WEATHER SERVICE GRAND RAPIDS MI
200 PM EDT FRI SEP 04 2015

NOTE: "FAIR" INDICATES FEW OR NO CLOUDS BELOW 12,000 FEET WITH NO
SIGNIFICANT WEATHER AND/OR OBSTRUCTION TO VISIBILITY.

MIZ047>049-052>055-059>063-066>070-074>076-081>083-041900-
SOUTHEAST LOWER MICHIGAN

CITY           SKY/WX    TMP DP  RH WIND       PRES   REMARKS
ADRIAN         MOSUNNY   85  66  53 W10       30.02F
6HR MIN TEMP:  66; 6HR MAX TEMP:  85;

ALMA           LGT RAIN  71  70  97 CALM      30.03S
ANN ARBOR      PTSUNNY   79  68  69 CALM      30.02F
BAD AXE        PTSUNNY   78  68  71 SE7G18    30.05F
6HR MIN TEMP:  68; 6HR MAX TEMP:  78;

DETROIT CITY   MOSUNNY   79  69  71 S6        30.02F
6HR MIN TEMP:  70; 6HR MAX TEMP:  79;

DETROIT        CLOUDY    78  70  76 VRB3      30.02F
6HR MIN TEMP:  70; 6HR MAX TEMP:  78;

FLINT          CLOUDY    78  67  68 S7        30.03S
6HR MIN TEMP:  71; 6HR MAX TEMP:  78;

GROSSE ILE     SUNNY     79  72  78 SE8       30.02S
HILLSDALE      SUNNY     80  68  66 W7        30.04F
6HR MIN TEMP:  69; 6HR MAX TEMP:  80;

HOWELL         CLOUDY    76  67  73 W7        30.03S
6HR MIN TEMP:  67; 6HR MAX TEMP:  77;


CITY           SKY/WX    TMP DP  RH WIND       PRES   REMARKS
JACKSON        PTSUNNY   76  66  71 W7        30.03S
6HR MIN TEMP:  68; 6HR MAX TEMP:  78;

LANSING        CLOUDY    75  66  73 SW5       30.03S
6HR MIN TEMP:  68; 6HR MAX TEMP:  75;

MASON          CLOUDY    76  64  66 W6        30.03F
MONROE         CLOUDY    79  71  76 NE5       30.01S
6HR MIN TEMP:  70; 6HR MAX TEMP:  81;

MT. CLEMENS    PTSUNNY   78  70  75 SE12      30.02F
6HR MIN TEMP:  70; 6HR MAX TEMP:  79;

PONTIAC        CLOUDY    75  69  81 SE6       30.03S
6HR MIN TEMP:  69; 6HR MAX TEMP:  75;

PORT HOPE        N/A     73  70  90 E12       30.05S
6HR MIN TEMP:  70; 6HR MAX TEMP:  76;

PORT HURON     CLOUDY    81  70  69 SE10      30.04S
TRI CITIES     LGT RAIN  74  69  85 E8        30.04S
6HR MIN TEMP:  69; 6HR MAX TEMP:  75;

YPSILANTI      PTSUNNY   81  70  69 SW3       30.03F
6HR MIN TEMP:  71; 6HR MAX TEMP:  81;

$$
MIZ043>046-050>051-056>058-064>065-071>073-077>080-041900-
SOUTHWEST LOWER MICHIGAN

CITY           SKY/WX    TMP DP  RH WIND       PRES   REMARKS
BATTLE CREEK   MOSUNNY   80  65  59 NW5       30.03F
6HR MIN TEMP:  68; 6HR MAX TEMP:  81;

BENTON HARBOR  SUNNY     75  67  76 VRB6      30.03F
6HR MIN TEMP:  69; 6HR MAX TEMP:  76;

BIG RAPIDS     CLOUDY    72  68  88 CALM      30.04S
6HR MIN TEMP:  67; 6HR MAX TEMP:  72;

COLDWATER      MOSUNNY   81  66  61 W6        30.04S
6HR MIN TEMP:  67; 6HR MAX TEMP:  81;

HOLLAND        PTSUNNY   76  66  71 W6        30.04S
6HR MIN TEMP:  69; 6HR MAX TEMP:  78;

GRAND RAPIDS   CLOUDY    76  66  71 W8        30.03F
6HR MIN TEMP:  68; 6HR MAX TEMP:  76;

KALAMAZOO      MOSUNNY   80  65  59 W9        30.03F
6HR MIN TEMP:  69; 6HR MAX TEMP:  81;

MARSHALL       PTSUNNY   82  65  57 SW7       30.03S
6HR MIN TEMP:  68; 6HR MAX TEMP:  82;

MOUNT PLEASANT HVY RAIN  72  70  91 CALM      30.03S
6HR MIN TEMP:  69; 6HR MAX TEMP:  72; 6HR PCP:  0.01;

MUSKEGON       CLOUDY    70  66  87 SW7       30.04S FOG
6HR MIN TEMP:  70; 6HR MAX TEMP:  74; 6HR PCP: TRACE;

STURGIS        MOSUNNY   75  68  78 CALM      30.04R
$$
MIZ016>042-041900-
NORTHERN LOWER MICHIGAN

CITY           SKY/WX    TMP DP  RH WIND       PRES   REMARKS
ALPENA         MOSUNNY   76  68  76 E10       30.08S
6HR MIN TEMP:  67; 6HR MAX TEMP:  79;

BEAVER ISLAND  MOSUNNY   77  66  68 E12G17    30.07R
BELLAIRE       CLOUDY    73  67  79 CALM      30.05S
6HR MIN TEMP:  65; 6HR MAX TEMP:  73;

CADILLAC       CLOUDY    69  67  94 CALM      30.05F FOG
CHARLEVOIX     CLOUDY    72  67  84 NE6       30.09S
6HR MIN TEMP:  67; 6HR MAX TEMP:  73;

GAYLORD        CLOUDY    71  69  93 SE8       30.07F
6HR MIN TEMP:  66; 6HR MAX TEMP:  71; 6HR PCP: TRACE;

HOUGHTON LAKE  CLOUDY    71  67  87 SE7       30.06S
6HR MIN TEMP:  65; 6HR MAX TEMP:  72;

MANISTEE       CLOUDY    72  64  78 NW7       30.04S
OSCODA         MOSUNNY   74  70  87 E7        30.06S
6HR MIN TEMP:  69; 6HR MAX TEMP:  74;

PELLSTON       CLOUDY    76  67  73 NE10      30.07S
6HR MIN TEMP:  65; 6HR MAX TEMP:  76;

TRAVERSE CITY  CLOUDY    72  67  84 NE6       30.04S
6HR MIN TEMP:  69; 6HR MAX TEMP:  74; 6HR PCP: TRACE;

LUDINGTON      CLOUDY    76  69  78 NW3       30.03S
6HR MIN TEMP:  71; 6HR MAX TEMP:  76;

$$
MIZ007>008-015-041900-
EASTERN UPPER MICHIGAN

CITY           SKY/WX    TMP DP  RH WIND       PRES   REMARKS
KINROSS        PTSUNNY   77  66  69 E10       30.10R
6HR MIN TEMP:  64; 6HR MAX TEMP:  79;

MACKINAC ISLAN CLOUDY    70  66  87 E14       30.09R
NEWBERRY       MOSUNNY   80  65  60 E8        30.08S
6HR MIN TEMP:  61; 6HR MAX TEMP:  81;

S. S. MARIE    MOSUNNY   77  65  66 SE9       30.10R
6HR MIN TEMP:  66; 6HR MAX TEMP:  77;

$$
MIZ004>006-011>014-085-041900-
CENTRAL UPPER MICHIGAN

CITY           SKY/WX    TMP DP  RH WIND       PRES   REMARKS
MANISTIQUE     PTSUNNY   75  66  72 SE8       30.07S
6HR MIN TEMP:  63; 6HR MAX TEMP:  78;

ESCANABA       MOSUNNY   75  63  64 E7        30.05S
6HR MIN TEMP:  64; 6HR MAX TEMP:  75;

MENOMINEE      CLOUDY    72  63  73 E8        30.05S
6HR MIN TEMP:  63; 6HR MAX TEMP:  73;

$$
MIZ001>003-009>011-084-041900-
WESTERN UPPER MICHIGAN

CITY           SKY/WX    TMP DP  RH WIND       PRES   REMARKS
IRON MOUNTAIN  SUNNY     79  64  60 SE6       30.07R
6HR MIN TEMP:  58; 6HR MAX TEMP:  80;

HOUGHTON       SUNNY     78  60  53 E9        30.08F
6HR MIN TEMP:  59; 6HR MAX TEMP:  79;

COPPER HARBOR    N/A     80  57  45 VRB3      30.09R
6HR MIN TEMP:  64; 6HR MAX TEMP:  80;

IRONWOOD       SUNNY     81  64  57 S9        30.01F
6HR MIN TEMP:  61; 6HR MAX TEMP:  81;

$$

ABBREVIATIONS USED IN REMARKS
   TC - TEMPERATURE IN CELSIUS
  WCI - WIND CHILL INDEX
   HX - HEAT INDEX
  VSB - VISIBILITY




USA.gov is the U.S. government's official web portal to all federal, state and local government web resources and services.